Location: Home
(42.5358°N, 72.7383°W)
Time: 09:33:33
(UTC-04:00)

A-11 Canister half - Pass Details

Date: 26 June 2022
Orbit: 1514 x 1685 km, 47.2° (Epoch: 15 August)

Event Time Altitude Azimuth Distance (km) Brightness Sun altitude
Rises 01:18:51 0° 249° (WSW) 4,932 11.4 -23.9°
Reaches altitude 10° 01:22:02 10° 250° (WSW) 3,938 10.9 -23.8°
Maximum altitude 01:32:13 83° 339° (NNW) 1,667 9.1 -23.5°
Drops below altitude 10° 01:42:08 10° 68° (ENE) 3,839 11.5 -23.2°
Sets 01:45:12 0° 70° (ENE) 4,803 12.0 -23.0°
